AirNav   Air Wisconsin pilot careers
 
 428 users online  

TE85 Marmack Airport
Montgomery, Texas, USA

GOING TO MONTGOMERY?


FAA INFORMATION EFFECTIVE 03 JANUARY 2019

Location

FAA Identifier: TE85
Lat/Long: 30-20-32.5900N / 095-39-42.0400W
30-20.543167N / 095-39.700667W
30.3423861 / -95.6616778
(estimated)
Elevation: 295 ft. / 90 m (estimated)
Variation: 05E (1995)
From city: 5 miles NW of MONTGOMERY, TX
Time zone: UTC -6 (UTC -5 during Daylight Saving Time)
Zip code: 77316

Airport Operations

Airport use: Private use. Permission required prior to landing
Activation date: 08/2000
Control tower: no
ARTCC: HOUSTON CENTER
FSS: MONTGOMERY COUNTY FLIGHT SERVICE STATION
Attendance: CONTINUOUS
Wind indicator: lighted
Segmented circle: no
Lights: ACTVT LIRL RY 12/30 - 122.6.

Airport Communications

WX ASOS at CXO (13 nm E): 118.325 (936-760-4237)
WX ASOS at DWH (18 nm S): PHONE 281-251-7853

Nearby radio navigation aids

VOR radial/distance  VOR name  Freq  Var
TNVr073/20.8NAVASOTA VOR/DME115.9008E
IAHr320/28.3HUMBLE VORTAC116.6005E

 
NDB name  Hdg/Dist  Freq  Var  ID
ALIBI236/11.028105ECX -.-. -..-
HUNTSVILLE183/24.230806EUTS ..- - ...
NIXIN307/31.232605EBVP -... ...- .--.

Airport Services

Runway Information

Runway 12/30

Dimensions: 2450 x 16 ft. / 747 x 5 m
Surface: asphalt
Runway edge lights: low intensity
Runway edge markings: RY 12/30 THLDS & CNTRLN MARKINGS.
Operational restrictions: RWY 30 SLOPES UPHILL APROXLY 45 FT IN ELEV WI THE RWY DIST OF 2600 FT.
RUNWAY 12  RUNWAY 30
Latitude: 30-20.651000N30-20.435167N
Longitude: 095-39.897833W095-39.503500W
Traffic pattern: leftleft
Obstructions: none100 ft. trees, 200 ft. from runway

Airport Ownership and Management from official FAA records

Ownership: Privately-owned
Owner: JAM HOLDINGS, LTD
PO BOX 1290
MONTGOMERY, TX 77356
Phone 713-822-4476
Manager: JEFF MARMACK
PO BOX 1290
MONTGOMERY, TX 77069
Phone 713-822-4476

Airport Operational Statistics

Aircraft based on the field: 1
Single engine airplanes: 1
    

Additional Remarks

CATTLE AND DEER ON & INVOF ARPT.

Instrument Procedures

There are no published instrument procedures at TE85.

Some nearby airports with instrument procedures:

KCXO - Conroe-North Houston Regional Airport (13 nm E)
KDWH - David Wayne Hooks Memorial Airport (18 nm S)
60R - Navasota Municipal Airport (23 nm W)
KUTS - Huntsville Municipal Airport (25 nm N)
KIAH - George Bush Intercontinental/Houston Airport (27 nm SE)
 
Loc | Ops | Rwys | IFR | FBO | Links
Com | Nav | Svcs | Stats | Notes
Area around TE85 (Marmack Airport)
 
Road maps at: MapQuest Bing Google
 
Aerial photo
No photo
 
Sectional chart

 
Airport distance calculator
Flying to Marmack Airport? Find the distance to fly.

From to TE85

Sunrise and sunset
Times for 24-Jan-2019
 Local
(UTC-6)
 Zulu
(UTC)
Morning civil twilight06:5312:53
Sunrise07:1913:19
Sunset17:5123:51
Evening civil twilight18:1700:17

Current date and time
Zulu (UTC)  24-Jan-2019 07:49:00
Local (UTC-6)  24-Jan-2019 01:49:00
 
METAR
KCXO 
13nm E 
240653Z AUTO 00000KT 10SM CLR M02/M02 A3014 RMK AO2 SLP208 I1000 T10171022
KDWH 
18nm S 
240653Z AUTO 00000KT 10SM CLR 01/M01 A3014 RMK AO2 SLP207 T00061006
KUTS 
25nm N 
240653Z AUTO 00000KT 10SM CLR M01/M03 A3012 RMK AO2 SLP200 T10111033
TAF
KCXO 
13nm E 
240526Z 2406/2506 00000KT P6SM SKC FM241600 16004KT P6SM SCT250
NOTAMs
Click for the latest NOTAMs
NOTAMs are issued by the DoD/FAA and will open in a separate window not controlled by AirNav.

 

 
 

Would you like to see your business listed on this page?

 If your business provides an interesting product or service to pilots, flight crews, aircraft, or users of the Marmack Airport, you should consider listing it here.  To start the listing process, click on the button below
 
Add a business
 

Other Pages about Marmack Airport

Update a link
 
Copyright © AirNav, LLC. All rights reserved. Privacy Policy  Contact